Preview of NWS' New Version of Forecast
This preview is not operational and should not be used for support decisions.

Regional Weather Roundup (RWR)

Issued by National Weather Service (NWS)

                            
000
ASUS46 KPQR 172010
RWROR 

OREGON REGIONAL WEATHER ROUNDUP
NATIONAL WEATHER SERVICE PORTLAND OR
100 PM PDT SAT AUG 17 2019

NOTE: "FAIR" INDICATES FEW OR NO CLOUDS BELOW 12,000 FEET WITH
NO SIGNIFICANT WEATHER AND/OR OBSTRUCTIONS TO VISIBILITY.

ORZ001>013-172100-
NORTHWEST OREGON

  
CITY           SKY/WX    TMP DP  RH WIND       PRES   REMARKS
ASTORIA        MOSUNNY   67  57  70 W7        30.02S                  
TILLAMOOK      CLOUDY    68  55  64 NW8       30.05S                  
NEWPORT        MOSUNNY   64  55  72 NW7       30.06F                  
PORTLAND       CLOUDY    67  56  67 E6        30.03S                  
VANCOUVER WA   CLOUDY    67  55  65 E6        30.02F                  
SCAPPOOSE      CLOUDY    69  55  60 E6        30.01S                  
HILLSBORO      CLOUDY    69  53  56 NW8       30.02S                  
AURORA         CLOUDY    68  52  56 SE3       30.03F                  
MCMINNVILLE    CLOUDY    69  52  54 CALM      30.02S                  
SALEM          CLOUDY    68  52  56 NE6       30.01F                  
CORVALLIS      PTSUNNY   73  53  49 VRB3      30.01F                  
EUGENE         MOSUNNY   75  51  43 N8        30.01F                  
$$

ORZ021-028-172100-
SOUTHWEST OREGON

  
CITY           SKY/WX    TMP DP  RH WIND       PRES   REMARKS
NORTH BEND     SUNNY     70  57  63 N18G25    30.02F                  
BROOKINGS      SUNNY     83  56  39 NW10      29.85F                  
ROSEBURG       SUNNY     76  52  43 VRB5      29.97F                  
SEXTON SUMMIT  SUNNY     70  49  47 VRB3      30.04F                  
GRANTS PASS    FAIR      81  46  30 NW7       29.96F                  
MEDFORD        SUNNY     78  42  27 VRB5      29.92F                  
$$

ORZ014>016-041-172100-
COLUMBIA GORGE

  
CITY           SKY/WX    TMP DP  RH WIND       PRES   REMARKS
TROUTDALE      CLOUDY    67  55  65 NE5       30.03S                  
HOOD RIVER     SUNNY     72  52  49 W7        29.97F                  
THE DALLES     SUNNY     75  52  44 NW20G25   29.92F                  
$$

ORZ029>031-041-044-049-050-061>064-502-503-505>511-172100-
EASTERN OREGON

  
CITY           SKY/WX    TMP DP  RH WIND       PRES   REMARKS
MADRAS         SUNNY     72  45  37 N5        29.99F                  
REDMOND        SUNNY     77  39  25 N6        29.97F                  
BEND           SUNNY     75  37  25 NE9       29.97F                  
PRINEVILLE     SUNNY     73  36  25 E8        29.97F                  
KLAMATH FALLS  SUNNY     77  34  21 NW8       30.01F                  
LAKEVIEW       SUNNY     78  38  23 S10       30.02F                  
HERMISTON      SUNNY     81  49  32 W8        29.89F                  
PENDLETON      SUNNY     78  47  33 SW9       29.91F                  
JOHN DAY       SUNNY     77  35  21 NW14G21   29.98F                  
MEACHAM        SUNNY     69  45  41 VRB5      29.99F                  
LA GRANDE      SUNNY     76  47  35 N8G17     29.94F                  
BAKER CITY     SUNNY     77  43  29 W8        29.95F                  
BURNS          SUNNY     79  40  24 W14       29.98F                  
ROME             N/A     83  28  13 NW9       29.95F                  
ONTARIO        SUNNY     86  42  21 SW10      29.88F                  
$$